• în România
  • Lista ţărilor
  • Pe 7 zile
  • Temperatura apei
  • Hartă satelitară
  • Meteo pe hartă
  • Widget-uri
  • user-avatar
    Intrare

    Meteo pe oră la Ghent

    Astăzi, 25 Februarie, Duminică

    Timp Temperatura Precipitaţii Vânt Presiune Umiditate
    00:00 -6°C° 0 mm 7 m/s 768 mmHg 54%
    01:00 -6°C° 0 mm 7 m/s 768 mmHg 53%
    02:00 -6°C° 0 mm 7 m/s 768 mmHg 51%
    03:00 -6°C° 0 mm 7 m/s 768 mmHg 50%
    04:00 -6°C° 0 mm 7 m/s 769 mmHg 48%
    05:00 -6°C° 0 mm 6 m/s 769 mmHg 47%
    06:00 -6°C° 0 mm 6 m/s 769 mmHg 43%
    07:00 -7°C° 0 mm 7 m/s 769 mmHg 39%
    08:00 -6°C° 0 mm 7 m/s 770 mmHg 35%
    09:00 -6°C° 0 mm 7 m/s 770 mmHg 31%
    10:00 -3°C° 0 mm 7 m/s 770 mmHg 28%
    11:00 -2°C° 0 mm 7 m/s 770 mmHg 24%
    12:00 -1°C° 0 mm 7 m/s 770 mmHg 21%
    13:00 -1°C° 0 mm 7 m/s 769 mmHg 22%
    14:00 -1°C° 0 mm 7 m/s 769 mmHg 23%
    15:00 -1°C° 0 mm 7 m/s 769 mmHg 23%
    16:00 -2°C° 0 mm 6 m/s 769 mmHg 26%
    17:00 -3°C° 0 mm 6 m/s 770 mmHg 30%
    18:00 -4°C° 0 mm 6 m/s 770 mmHg 33%
    19:00 -5°C° 0 mm 6 m/s 770 mmHg 35%
    20:00 -5°C° 0 mm 6 m/s 770 mmHg 38%
    21:00 -5°C° 0 mm 6 m/s 770 mmHg 41%
    22:00 -6°C° 0 mm 6 m/s 771 mmHg 43%
    23:00 -6°C° 0 mm 6 m/s 771 mmHg 45%

    Mâine, 26 Februarie, Luni

    Timp Temperatura Precipitaţii Vânt Presiune Umiditate
    00:00 -6°C° 0 mm 6 m/s 771 mmHg 47%
    01:00 -6°C° 0 mm 6 m/s 771 mmHg 51%
    02:00 -6°C° 0 mm 5 m/s 771 mmHg 55%
    03:00 -6°C° 0 mm 5 m/s 771 mmHg 59%
    04:00 -6°C° 0 mm 6 m/s 771 mmHg 62%
    05:00 -6°C° 0 mm 6 m/s 771 mmHg 64%
    06:00 -6°C° 0 mm 6 m/s 772 mmHg 66%
    07:00 -6°C° 0 mm 6 m/s 772 mmHg 62%
    08:00 -7°C° 0 mm 7 m/s 772 mmHg 59%
    09:00 -6°C° 0 mm 7 m/s 772 mmHg 55%
    10:00 -4°C° 0 mm 7 m/s 772 mmHg 49%
    11:00 -4°C° 0 mm 7 m/s 771 mmHg 44%
    12:00 -3°C° 0 mm 7 m/s 771 mmHg 39%
    13:00 -3°C° 0 mm 7 m/s 771 mmHg 38%
    14:00 -3°C° 0 mm 7 m/s 770 mmHg 38%
    15:00 -3°C° 0 mm 7 m/s 770 mmHg 37%
    16:00 -4°C° 0 mm 7 m/s 770 mmHg 40%
    17:00 -5°C° 0 mm 6 m/s 770 mmHg 44%
    18:00 -5°C° 0 mm 5 m/s 770 mmHg 47%
    19:00 -6°C° 0 mm 5 m/s 770 mmHg 49%
    20:00 -6°C° 0 mm 5 m/s 770 mmHg 50%
    21:00 -6°C° 0 mm 5 m/s 770 mmHg 52%
    22:00 -6°C° 0 mm 5 m/s 770 mmHg 53%
    23:00 -6°C° 0 mm 5 m/s 769 mmHg 54%

    Poimâine, 27 Februarie, Marţi

    Timp Temperatura Precipitaţii Vânt Presiune Umiditate
    00:00 -5°C° 0 mm 4 m/s 769 mmHg 54%
    01:00 -7°C° 0 mm 4 m/s 769 mmHg 55%
    02:00 -7°C° 0 mm 4 m/s 768 mmHg 56%
    03:00 -6°C° 0 mm 3 m/s 768 mmHg 56%
    04:00 -7°C° 0 mm 4 m/s 767 mmHg 57%
    05:00 -7°C° 0 mm 4 m/s 767 mmHg 57%
    06:00 -7°C° 0 mm 4 m/s 767 mmHg 58%
    07:00 -7°C° 0 mm 4 m/s 767 mmHg 55%
    08:00 -6°C° 0 mm 5 m/s 767 mmHg 53%
    09:00 -6°C° 0 mm 5 m/s 767 mmHg 51%
    10:00 -5°C° 0 mm 5 m/s 766 mmHg 47%
    11:00 -4°C° 0 mm 5 m/s 766 mmHg 43%
    12:00 -2°C° 0 mm 5 m/s 766 mmHg 39%
    13:00 -2°C° 0 mm 5 m/s 765 mmHg 39%
    14:00 -2°C° 0 mm 5 m/s 765 mmHg 39%
    15:00 -2°C° 0 mm 5 m/s 764 mmHg 39%
    16:00 -3°C° 0 mm 4 m/s 764 mmHg 42%
    17:00 -4°C° 0 mm 4 m/s 764 mmHg 45%
    18:00 -5°C° 0 mm 3 m/s 764 mmHg 48%
    19:00 -5°C° 0 mm 3 m/s 764 mmHg 49%
    20:00 -5°C° 0 mm 3 m/s 764 mmHg 49%
    21:00 -6°C° 0 mm 3 m/s 764 mmHg 49%
    22:00 -6°C° 0 mm 3 m/s 764 mmHg 50%
    23:00 -6°C° 0 mm 3 m/s 764 mmHg 50%

    28 Februarie, Miercuri

    Timp Temperatura Precipitaţii Vânt Presiune Umiditate
    00:00 -6°C° 0 mm 3 m/s 764 mmHg 50%
    01:00 -6°C° 0 mm 3 m/s 764 mmHg 49%
    02:00 -6°C° 0 mm 3 m/s 764 mmHg 48%
    03:00 -7°C° 0 mm 3 m/s 764 mmHg 46%
    04:00 -8°C° 0 mm 4 m/s 764 mmHg 43%
    05:00 -8°C° 0 mm 5 m/s 765 mmHg 40%
    06:00 -8°C° 0 mm 5 m/s 765 mmHg 37%
    07:00 -9°C° 0 mm 6 m/s 765 mmHg 35%
    08:00 -9°C° 0 mm 7 m/s 765 mmHg 34%
    09:00 -8°C° 0 mm 7 m/s 765 mmHg 32%
    10:00 -8°C° 0 mm 7 m/s 765 mmHg 31%
    11:00 -7°C° 0 mm 7 m/s 764 mmHg 30%
    12:00 -6°C° 0 mm 7 m/s 764 mmHg 30%
    13:00 -6°C° 0 mm 8 m/s 764 mmHg 30%
    14:00 -6°C° 0 mm 8 m/s 763 mmHg 29%
    15:00 -5°C° 0 mm 8 m/s 763 mmHg 29%
    16:00 -6°C° 0 mm 8 m/s 762 mmHg 31%
    17:00 -7°C° 0 mm 8 m/s 762 mmHg 34%
    18:00 -7°C° 0 mm 8 m/s 762 mmHg 36%
    19:00 -7°C° 0 mm 8 m/s 761 mmHg 37%
    20:00 -8°C° 0 mm 8 m/s 761 mmHg 38%
    21:00 -8°C° 0 mm 8 m/s 761 mmHg 40%
    22:00 -9°C° 0 mm 9 m/s 761 mmHg 40%
    23:00 -9°C° 0 mm 9 m/s 760 mmHg 41%

    1 Martie, Joi

    Timp Temperatura Precipitaţii Vânt Presiune Umiditate
    00:00 -9°C° 0 mm 9 m/s 760 mmHg 42%
    01:00 -10°C° 0 mm 9 m/s 759 mmHg 42%
    02:00 -10°C° 0 mm 9 m/s 759 mmHg 43%
    03:00 -10°C° 0 mm 10 m/s 758 mmHg 43%
    04:00 -10°C° 0 mm 10 m/s 757 mmHg 43%
    05:00 -10°C° 0 mm 10 m/s 757 mmHg 43%
    06:00 -10°C° 0 mm 10 m/s 756 mmHg 43%
    07:00 -10°C° 0 mm 10 m/s 756 mmHg 40%
    08:00 -9°C° 0 mm 10 m/s 756 mmHg 38%
    09:00 -9°C° 0 mm 10 m/s 755 mmHg 36%
    10:00 -8°C° 0 mm 10 m/s 755 mmHg 34%
    11:00 -7°C° 0 mm 10 m/s 755 mmHg 32%
    12:00 -5°C° 0 mm 10 m/s 754 mmHg 30%
    13:00 -4°C° 0 mm 10 m/s 754 mmHg 30%
    14:00 -4°C° 0 mm 10 m/s 753 mmHg 31%
    15:00 -4°C° 0 mm 10 m/s 752 mmHg 32%
    16:00 -4°C° 0 mm 10 m/s 752 mmHg 34%
    17:00 -4°C° 0 mm 9 m/s 752 mmHg 36%
    18:00 -5°C° 0 mm 9 m/s 752 mmHg 38%
    19:00 -5°C° 0 mm 9 m/s 752 mmHg 37%
    20:00 -5°C° 0 mm 9 m/s 752 mmHg 37%
    21:00 -5°C° 0 mm 9 m/s 751 mmHg 37%
    22:00 -5°C° 0 mm 9 m/s 751 mmHg 37%
    23:00 -5°C° 0 mm 9 m/s 751 mmHg 38%

    2 Martie, Vineri

    Timp Temperatura Precipitaţii Vânt Presiune Umiditate
    00:00 -5°C° 0 mm 9 m/s 750 mmHg 38%
    01:00 -5°C° 0 mm 9 m/s 750 mmHg 39%
    02:00 -5°C° 0 mm 9 m/s 749 mmHg 40%
    03:00 -6°C° 0 mm 9 m/s 749 mmHg 41%
    04:00 -6°C° 0 mm 9 m/s 748 mmHg 42%
    05:00 -6°C° 0 mm 8 m/s 748 mmHg 44%
    06:00 -6°C° 0 mm 8 m/s 747 mmHg 45%
    07:00 -5°C° 0 mm 8 m/s 747 mmHg 47%
    08:00 -4°C° 0 mm 8 m/s 747 mmHg 48%
    09:00 -2°C° 0 mm 8 m/s 746 mmHg 49%
    10:00 -2°C° 0,6 mm 7 m/s 746 mmHg 60%
    11:00 -2°C° 0,6 mm 7 m/s 746 mmHg 70%
    12:00 -2°C° 0,6 mm 6 m/s 746 mmHg 81%
    13:00 -1°C° 0,7 mm 6 m/s 745 mmHg 84%
    14:00 0°C° 0,7 mm 5 m/s 745 mmHg 88%
    15:00 +1°C° 0,7 mm 5 m/s 745 mmHg 92%
    16:00 +1°C° 0,1 mm 4 m/s 745 mmHg 92%
    17:00 +1°C° 0,1 mm 4 m/s 745 mmHg 93%
    18:00 +1°C° 0,1 mm 4 m/s 745 mmHg 94%
    19:00 +1°C° 0,1 mm 4 m/s 745 mmHg 93%
    20:00 +1°C° 0,1 mm 5 m/s 746 mmHg 92%
    21:00 +1°C° 0,1 mm 6 m/s 746 mmHg 91%
    22:00 +1°C° 0 mm 6 m/s 746 mmHg 90%
    23:00 +1°C° 0 mm 6 m/s 746 mmHg 90%
    Arată mai mult